Location: Eschentzwiller
(47.7125°N, 7.3981°E)
Time: 00:39:42
(UTC+00:00)

SAR-Lupe-4 - Pass Details

Date: 27 October 2020
Orbit: 481 x 484 km, 98.2° (Epoch: 22 November)

Event Time Altitude Azimuth Distance (km) Brightness Sun altitude
Rises 17:53:28 0° 9° (N) 2,557 7.1 -16.2°
Reaches altitude 10° 17:55:34 10° 4° (N) 1,671 6.2 -16.6°
Maximum altitude 17:59:02 49° 289° (WNW) 629 4.5 -17.2°
Drops below altitude 10° 18:02:29 10° 213° (SSW) 1,657 6.7 -17.7°
Sets 18:04:34 0° 208° (SSW) 2,532 7.6 -18.1°
